Terminal Aerodrome Forecast
Issued by NWS

Home | Current Version | Previous Version | Text Only | Print | Product List | Glossary On
Versions: 1 2 3 4 5 6 7 8 9 10 11 12 13 14 15 16 17 18 19 20 21
000
FTUS43 KDVN 131900 AAA
TAFCID
TAF AMD
KCID 131905Z 1319/1418 05007KT 1SM +RA BR VCTS SCT007 BKN035CB
     FM140000 34015G25KT 2SM -RA BR OVC004
     FM140800 33019G27KT 3SM -RASN BR OVC010
     FM141300 35019G28KT P6SM VCSH OVC015=

USA.gov is the U.S. government's official web portal to all federal, state and local government web resources and services.